EHI
0 0 0 0 0 0 0 0 0 0 0 0 0 0 0 0 0 0 0 0 0 0 0 0 0 0 0 0 0 0 0 0 0 0 0 0 0 0 0 0 0 0 0 0
0 0 0 0 0 0 0 0 0 0 0 0 0 0 0 0 0 0 0 0 0 0 0 0 0 0 0 0 0 0 0 0 0 0 0 0 0 0 0 1 1 0 0 0
0 0 0 0 0 0 0 0 0 0 0 0 0 0 0 0 0 0 0 0 0 0 0 0 0 0 0 0 0 0 0 0 0 0 0 0 0 0 1 2 2 1 0 0
0 0 0 0 0 0 0 0 0 0 0 0 0 0 0 0 0 0 0 0 0 0 0 0 0 0 0 0 0 0 0 0 0 0 0 0 0 0 1 2 2 1 0 0
0 0 0 0 0 0 0 0 0 0 0 0 0 0 0 0 0 0 0 0 0 0 0 0 0 0 0 0 0 0 0 0 0 0 0 1 0 0 0 1 1 0 0 0
0 0 0 0 0 0 0 0 0 0 0 0 0 0 0 0 0 0 0 0 0 0 0 0 0 0 0 0 0 0 0 0 0 0 0 0 0 0 0 0 1 0 0 0
0 0 0 0 0 0 0 0 0 0 0 0 0 0 0 0 0 0 0 0 0 0 0 0 0 0 0 0 0 0 0 0 0 0 0 0 0 0 0 0 0 0 0 0
0 0 0 0 0 0 0 0 0 0 0 0 0 0 0 0 0 0 0 0 0 0 0 0 0 0 0 0 1 0 0 0 0 0 0 0 0 0 0 0 0 0 0 0
0 0 0 0 0 0 0 0 0 0 0 0 0 0 0 0 0 0 0 0 0 0 0 0 0 0 0 0 0 0 0 0 0 0 0 0 0 0 0 0 0 0 0 0
0 0 0 0 0 0 0 0 0 0 0 0 0 0 0 0 0 0 0 0 0 0 0 0 0 0 0 0 0 0 0 0 0 1 1 0 0 0 0 0 0 0 0 0
0 0 0 0 0 0 0 0 0 0 0 0 0 0 0 0 0 0 0 0 0 0 0 0 0 0 0 0 0 0 0 0 0 1 1 0 0 0 0 0 0 1 0 0
0 0 0 0 0 0 0 0 0 0 0 0 0 0 0 0 0 0 0 0 0 0 0 0 0 0 0 0 0 0 0 0 0 0 0 0 0 0 0 0 0 0 0 0
0 0 0 0 0 0 0 0 0 0 0 0 0 0 0 0 0 0 0 0 0 0 0 0 0 0 0 0 0 0 0 0 0 0 0 0 0 0 0 0 0 0 0 0
0 0 0 0 0 0 0 0 0 0 0 0 0 0 0 0 0 0 0 0 0 0 0 0 0 0 0 0 0 1 1 1 1 0 0 0 0 0 0 0 0 0 0 0
0 0 0 0 0 0 0 0 0 0 0 0 0 0 0 0 0 0 0 0 0 0 0 0 0 0 0 0 1 2 2 2 1 0 0 0 0 0 0 0 0 0 0 0
0 0 0 0 0 0 0 0 0 0 0 0 0 0 0 0 0 0 0 0 0 0 0 0 0 0 0 0 1 2 2 1 0 0 0 0 0 0 0 0 0 0 0 0
0 0 0 0 0 0 0 0 0 0 0 0 0 0 0 0 0 0 0 0 0 0 0 0 0 0 0 0 1 1 1 0 0 0 0 0 0 0 0 0 0 0 0 0
0 0 0 0 0 0 0 0 0 0 0 0 0 0 0 0 0 0 0 0 0 0 0 0 0 0 0 0 0 0 0 0 0 0 0 0 0 0 0 0 0 0 0 0
0 0 0 0 0 0 0 0 0 0 0 0 0 0 0 0 0 0 0 0 0 0 0 0 0 0 0 0 0 0 0 0 0 0 0 0 0 0 0 0 0 0 0 0
0 0 0 0 0 0 0 0 0 0 0 0 0 0 0 0 0 0 0 0 0 0 0 0 0 0 0 0 0 0 0 0 0 0 0 0 0 0 0 0 0 0 0 0
0 0 0 0 0 0 0 0 0 0 0 0 0 0 0 0 0 0 0 0 0 0 0 0 0 0 0 0 0 0 0 0 0 0 0 0 0 0 0 0 0 0 0 0
0 0 0 0 0 0 0 0 0 0 0 0 0 0 0 0 0 0 0 0 0 0 0 0 0 0 0 0 0 0 0 0 0 0 0 0 0 0 0 0 0 0 0 0
0 0 0 0 0 0 0 0 0 0 0 0 0 0 0 0 0 0 0 0 0 0 0 0 0 0 0 0 0 0 0 0 0 0 1 1 1 0 0 0 0 0 0 0
0 0 0 0 0 0 0 0 0 0 0 0 0 0 0 0 0 0 0 0 0 0 0 0 0 0 0 0 0 0 0 0 0 0 1 2 1 0 0 0 0 0 0 0
0 0 0 0 0 0 0 0 0 0 0 0 0 0 0 0 0 0 0 0 0 0 0 0 0 0 0 0 0 0 0 0 0 0 0 1 1 0 0 0 0 0 0 0
0 0 0 0 0 0 0 0 0 0 0 0 0 0 0 0 0 0 0 0 0 0 0 0 0 0 0 0 0 0 0 0 0 0 0 0 0 0 0 0 0 0 0 0
Wind_Speed
3 5 4 3 3 3 3 4 4 3 0 3 5 6 4 3 5 6 6 7 6 6 6 5 5 5 5 4 4 4 4 4 3 2 1 1 1 1 2 2 3 2 2 2
6 5 2 2 3 4 5 5 4 2 1 4 5 6 3 3 5 6 6 6 7 6 6 6 6 6 5 5 4 4 4 3 3 2 1 1 1 1 2 1 2 2 2 2
6 1 2 4 5 6 5 5 5 5 3 4 6 4 2 2 3 4 5 6 6 6 7 7 7 7 6 5 5 4 4 4 3 3 2 2 2 2 2 2 1 1 1 2
5 3 4 5 5 5 4 2 4 5 6 3 4 4 1 1 2 4 4 5 5 6 6 6 7 7 6 5 5 5 4 4 4 3 2 2 1 1 1 1 1 2 1 1
4 3 5 5 3 5 2 0 3 5 7 6 4 5 1 1 1 1 2 3 4 5 6 7 7 6 6 6 5 4 4 4 4 3 3 2 1 1 1 1 2 2 2 1
4 3 4 3 2 3 2 4 4 5 6 6 2 5 1 1 1 1 1 2 3 4 5 6 6 6 6 5 5 5 5 4 4 4 4 3 2 2 2 2 2 2 2 2
6 6 5 4 4 5 5 5 4 4 4 1 1 5 2 2 1 2 1 1 2 4 5 6 6 7 7 7 6 6 5 5 5 5 4 4 3 3 3 2 2 2 2 2
6 6 5 5 5 4 5 6 5 4 3 2 3 4 1 2 1 1 1 2 2 3 4 5 6 6 7 7 7 6 6 5 5 5 5 4 4 3 2 3 2 3 2 2
4 3 3 2 3 5 4 5 4 6 5 5 3 2 2 2 1 2 2 2 2 2 3 4 5 6 7 7 7 7 6 5 5 5 5 4 4 4 3 4 3 2 2 2
4 4 2 2 4 1 4 2 4 5 5 5 3 4 2 1 1 1 1 1 1 2 3 3 4 5 6 6 6 6 6 6 6 5 4 3 4 4 4 4 4 3 3 2
6 6 4 5 6 6 5 5 6 5 5 6 5 1 2 2 2 1 1 0 1 2 3 3 4 5 5 6 6 6 6 6 5 5 5 4 4 4 4 4 4 4 3 3
5 6 6 5 1 2 5 7 8 7 6 6 7 3 2 1 2 2 2 1 1 2 2 3 3 4 5 6 6 6 6 6 5 5 4 4 4 4 4 4 4 4 4 4
4 6 6 5 6 5 5 6 7 8 7 7 8 3 2 1 2 2 2 2 1 2 2 3 3 4 5 5 5 6 6 5 5 4 4 5 5 5 4 4 4 4 4 4
5 7 8 8 5 3 5 6 7 9 9 9 10 9 5 5 4 3 3 3 2 2 3 3 3 4 4 4 5 5 5 5 5 5 5 5 5 4 4 4 4 4 4 4
6 8 8 8 7 7 8 9 9 12 12 12 11 10 9 6 5 4 4 3 2 2 3 3 3 4 4 4 4 4 4 4 5 5 5 5 4 4 4 4 5 4 4 4
5 7 8 9 8 9 11 11 11 12 12 13 12 12 8 6 5 5 4 3 3 2 3 3 3 4 5 5 5 5 5 4 4 5 4 4 4 3 4 4 4 4 4 4
5 7 8 9 6 8 12 11 12 11 10 11 12 9 5 5 5 5 4 4 3 3 2 3 3 4 4 5 5 5 4 4 4 4 4 4 3 3 4 4 5 5 5 4
8 8 6 7 8 12 5 1 6 9 10 10 10 7 6 6 5 5 4 3 3 3 3 2 2 2 3 3 4 4 4 4 4 4 4 3 3 3 4 4 5 5 5 4
9 8 6 6 9 10 6 4 6 8 9 6 8 7 5 3 4 5 2 3 3 3 3 2 2 2 3 3 3 4 4 4 4 3 3 3 3 3 4 4 5 5 5 4
5 7 8 8 9 8 3 1 2 6 8 1 3 4 3 3 5 1 1 2 3 2 2 1 1 2 3 3 3 4 4 4 4 3 3 3 2 3 4 4 4 4 4 4
7 7 9 11 11 8 2 1 4 7 2 2 1 2 3 4 3 2 1 1 1 1 1 1 2 2 2 3 4 4 3 3 3 2 2 2 3 3 3 3 4 4 4 4
9 7 9 8 10 7 3 3 5 3 3 2 1 2 3 3 2 1 1 1 1 1 1 1 2 2 2 3 4 4 3 2 2 3 3 3 2 2 2 2 3 3 4 4
9 7 5 7 5 2 2 3 2 3 3 3 3 3 3 4 3 3 2 2 2 2 1 2 2 2 2 3 3 4 3 2 3 3 3 3 3 2 2 3 3 3 3 3
6 5 7 9 8 5 5 6 6 6 6 6 5 4 4 4 4 4 3 3 3 3 2 2 3 3 3 2 3 3 2 3 3 4 3 3 3 2 2 2 2 3 3 4
6 5 8 11 9 8 8 8 8 7 7 8 7 6 6 5 5 4 4 4 3 3 3 3 4 4 4 3 3 2 3 3 4 4 3 3 2 2 2 2 2 3 2 2
8 9 10 10 9 10 9 8 8 9 8 8 7 7 6 6 5 5 5 5 4 4 4 4 4 4 4 3 3 2 3 4 4 3 3 2 2 2 2 2 2 1 2 2
Wind_Direction
196 215 211 211 233 274 273 275 292 312 297 256 269 281 280 220 214 221 214 205 200 195 184 176 177 181 184 183 182 164 172 161 153 150 156 128 108 97 86 73 78 84 75 85
204 207 216 228 211 230 243 263 285 300 255 264 283 287 276 237 225 228 226 214 202 196 187 176 181 180 187 180 180 169 165 162 151 144 143 132 116 105 97 101 99 94 90 83
229 155 170 201 206 224 245 269 295 303 290 243 273 260 217 192 208 221 229 227 216 205 201 183 186 183 183 185 182 182 171 159 154 153 154 156 147 167 155 137 117 97 99 99
229 206 205 223 224 245 252 278 276 278 277 278 279 291 180 181 203 206 215 216 214 205 204 192 188 187 185 184 183 184 170 161 157 161 174 178 191 159 140 131 135 137 128 134
207 203 217 230 239 251 292 271 252 264 271 271 245 270 140 162 213 198 195 206 208 201 200 193 192 191 187 177 178 183 172 170 170 176 174 212 203 168 156 168 159 157 137 162
235 214 241 256 244 232 194 208 213 228 249 253 247 272 275 124 330 338 170 182 190 192 192 194 188 187 184 177 177 180 183 180 182 197 198 210 203 207 203 206 183 179 164 179
212 206 203 217 222 191 221 253 250 225 222 243 97 265 281 41 356 320 290 192 169 177 187 191 190 190 186 184 185 186 192 191 192 202 210 207 214 228 228 227 206 213 189 184
222 207 189 206 241 242 226 257 277 292 293 296 229 254 27 57 333 293 246 190 166 167 188 191 192 192 189 189 190 195 198 198 196 207 212 215 209 228 237 243 242 233 233 213
236 206 147 209 248 253 224 233 288 287 281 273 239 238 234 177 180 171 162 153 161 173 183 191 189 192 191 192 194 198 197 199 201 210 210 214 219 228 239 244 245 240 239 228
252 251 200 163 184 195 281 243 223 251 276 271 256 248 234 200 218 201 183 143 149 166 180 182 189 194 195 194 195 200 203 203 203 210 210 218 234 232 240 241 237 236 232 223
236 246 210 197 223 224 190 207 240 252 268 281 283 274 42 316 308 288 288 263 206 189 187 184 188 188 191 191 195 199 203 207 207 211 214 217 226 236 237 236 238 239 235 222
219 252 244 230 204 299 255 251 242 253 250 259 279 288 87 276 300 290 290 268 220 200 188 180 181 177 186 194 196 198 203 207 211 213 217 223 228 233 236 233 231 229 227 223
191 236 246 219 188 189 226 237 245 259 265 256 261 260 129 241 272 275 275 271 238 209 197 181 178 183 188 192 194 197 200 203 200 205 216 224 225 228 232 234 232 235 231 223
229 240 249 260 281 256 240 232 232 242 253 258 258 273 266 269 270 273 277 275 252 223 206 195 189 190 191 192 192 193 196 198 196 199 212 224 229 230 233 232 232 230 230 225
234 250 249 262 271 262 258 251 237 242 256 267 276 274 276 278 278 275 270 261 239 229 221 208 202 196 191 191 192 192 192 196 199 202 212 219 226 227 229 223 223 221 223 230
238 253 253 253 251 253 257 254 248 247 254 259 268 270 276 282 271 266 257 242 235 239 239 228 215 201 199 194 194 192 193 194 199 205 211 211 221 218 225 224 218 217 219 225
224 240 251 255 249 256 250 246 242 243 244 252 260 269 271 268 266 268 258 243 240 242 246 241 225 207 206 202 195 194 195 192 199 206 210 211 218 220 223 220 213 214 216 220
235 235 247 260 249 247 260 258 248 249 254 253 263 272 267 271 282 269 253 247 254 255 256 254 235 210 203 195 191 189 186 191 196 203 206 205 212 216 216 214 215 218 220 215
232 231 238 248 252 258 253 232 226 242 256 251 252 258 263 274 259 234 232 276 274 265 267 260 235 205 191 186 186 185 181 185 193 203 206 204 210 211 213 213 216 219 220 217
204 225 238 240 251 256 265 180 224 248 252 226 241 242 240 220 248 257 12 272 279 276 261 246 215 196 183 177 180 186 188 192 202 210 214 208 210 215 219 218 217 216 214 213
189 202 226 241 249 260 311 107 199 236 307 63 232 241 221 231 300 5 14 267 280 275 237 207 195 193 184 176 181 190 199 214 218 216 216 214 218 227 228 224 219 215 211 207
221 218 225 236 243 249 122 171 226 302 12 4 302 276 251 276 322 319 293 275 273 274 225 206 195 186 184 188 191 195 208 221 211 204 208 211 214 220 221 220 220 214 209 209
233 239 244 238 258 356 170 222 282 320 298 315 308 298 279 285 289 280 272 267 258 249 234 226 210 203 196 199 210 215 207 204 198 200 208 209 207 210 217 213 207 207 209 216
230 249 246 249 253 258 255 261 270 278 287 302 294 279 267 275 284 282 271 262 260 250 237 234 222 222 218 207 218 230 213 200 204 207 211 209 207 206 206 212 215 212 212 214
249 230 246 254 261 265 254 253 264 273 281 288 283 273 267 268 269 269 264 260 257 249 239 235 234 235 230 215 216 221 208 206 213 212 209 208 208 207 209 212 225 230 221 228
230 237 246 258 266 267 272 277 274 267 266 267 267 267 263 263 263 263 262 259 253 244 240 240 238 236 233 220 215 210 207 211 217 215 212 214 212 214 218 217 206 167 219 185